Malmo Sturup, Sweden

11:20 PM CEST on April 30, 2017 (GMT +0200)
Sturup

Weather History for ESMS - September, 2013

Change the Weather History Date:

Sunday, September 29, 2013

  Actual Average (EKCH) Record (EKCH)
Temperature  
Mean Temperature 46 °F -  
Max Temperature 57 °F 58 °F 68 °F (2011)
Min Temperature 35 °F 47 °F 41 °F (1997)
Degree Days  
Heating Degree Days 19    
Moisture  
Dew Point 41 °F    
Average Humidity 82    
Maximum Humidity 100    
Minimum Humidity 58    
Precipitation  
Precipitation 0.00 in - - ()
Sea Level Pressure  
Sea Level Pressure 30.17 in    
Wind  
Wind Speed 6 mph ()    
Max Wind Speed 14 mph    
Max Gust Speed -    
Visibility 6.2 miles    
Events      
Averages and records for this station are not official NWS values.
T = Trace of Precipitation, MM = Missing Value Source: Averaged Metar Reports

Daily Weather History Graph

Daily Weather History Graph

Search for Another Location

Airport or City:

Trip Planner

Search our weather history database for the weather conditions in past years. The results will help you decide how hot, cold, wet, or windy it might be!

Date:

Astronomy

Sep. 29, 2013 Rise Set
Actual Time 7:05 AM CEST 6:47 PM CEST
Civil Twilight 6:28 AM CEST 7:23 PM CEST
Nautical Twilight 5:45 AM CEST 8:06 PM CEST
Astronomical Twilight 5:00 AM CEST 8:50 PM CEST
Moon 12:41 AM CEST (9/29) 4:16 PM CEST (9/29)
Length of Visible Light 12h 54m
Length of Day
11h 41m
Waning Crescent, 29% of the Moon is Illuminated
Sep 29
Waning Crescent
Oct 5
New
Oct 12
First Quarter
Oct 19
Full
Oct 27
Last Quarter

Hourly Weather History & Observations

Time (CEST) Temp. Windchill Dew Point Humidity Pressure Visibility Wind Dir Wind Speed Gust Speed Precip Events Conditions
12:20 AM 37.4 °F - 35.6 °F 93% 30.15 in 6.2 mi ENE 2.3 mph - N/A   Scattered Clouds
1:20 AM 35.6 °F 32.8 °F 35.6 °F 100% 30.15 in - NE 3.5 mph - N/A   Clear
1:50 AM 39.2 °F 37.0 °F 37.4 °F 93% 30.15 in - ENE 3.5 mph - N/A   Clear
2:20 AM 41.0 °F 37.1 °F 39.2 °F 93% 30.15 in - NE 5.8 mph - N/A   Clear
2:50 AM 39.2 °F 37.0 °F 37.4 °F 93% 30.15 in - NE 3.5 mph - N/A   Clear
3:20 AM 39.2 °F 37.0 °F 37.4 °F 93% 30.15 in - NE 3.5 mph - N/A   Clear
3:50 AM 41.0 °F 38.0 °F 41.0 °F 100% 30.15 in - NE 4.6 mph - N/A   Clear
4:20 AM 41.0 °F 37.1 °F 41.0 °F 100% 30.15 in - ENE 5.8 mph - N/A   Clear
4:50 AM 42.8 °F 39.3 °F 41.0 °F 93% 30.15 in - ENE 5.8 mph - N/A   Clear
5:20 AM 42.8 °F 39.3 °F 41.0 °F 93% 30.15 in - NE 5.8 mph - N/A   Clear
5:50 AM 41.0 °F 38.0 °F 41.0 °F 100% 30.18 in - ENE 4.6 mph - N/A   Clear
6:20 AM 41.0 °F 37.1 °F 41.0 °F 100% 30.18 in - NE 5.8 mph - N/A   Clear
6:50 AM 41.0 °F 37.1 °F 39.2 °F 93% 30.18 in - ENE 5.8 mph - N/A   Clear
7:20 AM 41.0 °F 37.1 °F 39.2 °F 93% 30.18 in - ENE 5.8 mph - N/A   Clear
7:50 AM 42.8 °F 37.5 °F 41.0 °F 93% 30.18 in - ENE 9.2 mph - N/A   Clear
8:20 AM 44.6 °F 39.7 °F 41.0 °F 87% 30.18 in - ENE 9.2 mph - N/A   Clear
8:50 AM 46.4 °F 42.4 °F 42.8 °F 87% 30.18 in - ENE 8.1 mph - N/A   Clear
9:20 AM 48.2 °F - 42.8 °F 82% 30.18 in - East 11.5 mph - N/A   Clear
9:50 AM 50.0 °F - 42.8 °F 76% 30.21 in - East 11.5 mph - N/A   Clear
10:20 AM 50.0 °F - 42.8 °F 76% 30.21 in - East 11.5 mph - N/A   Clear
10:50 AM 51.8 °F - 41.0 °F 67% 30.21 in - ENE 13.8 mph - N/A   Clear
11:20 AM 51.8 °F - 41.0 °F 67% 30.21 in - ENE 12.7 mph - N/A   Clear
11:50 AM 53.6 °F - 41.0 °F 62% 30.18 in - East 11.5 mph - N/A   Clear
12:20 PM 53.6 °F - 42.8 °F 67% 30.18 in - East 11.5 mph - N/A   Clear
12:50 PM 53.6 °F - 41.0 °F 62% 30.18 in - East 9.2 mph - N/A   Clear
1:20 PM 53.6 °F - 41.0 °F 62% 30.18 in 6.2 mi East 10.4 mph - N/A   Partly Cloudy
1:50 PM 57.2 °F - 42.8 °F 59% 30.18 in 6.2 mi East 8.1 mph - N/A   Partly Cloudy
2:20 PM 55.4 °F - 41.0 °F 58% 30.18 in 6.2 mi East 8.1 mph - N/A   Partly Cloudy
2:50 PM 55.4 °F - 42.8 °F 63% 30.18 in 6.2 mi ENE 8.1 mph - N/A   Partly Cloudy
3:20 PM 55.4 °F - 42.8 °F 63% 30.18 in 6.2 mi NE 9.2 mph - N/A   Scattered Clouds
3:50 PM 55.4 °F - 42.8 °F 63% 30.18 in 6.2 mi East 8.1 mph - N/A   Partly Cloudy
4:20 PM 53.6 °F - 42.8 °F 67% 30.18 in 6.2 mi East 11.5 mph - N/A   Partly Cloudy
4:50 PM 55.4 °F - 42.8 °F 63% 30.18 in 6.2 mi East 8.1 mph - N/A   Partly Cloudy
5:20 PM 53.6 °F - 44.6 °F 72% 30.15 in 6.2 mi ENE 11.5 mph - N/A   Partly Cloudy
5:50 PM 51.8 °F - 44.6 °F 76% 30.18 in 6.2 mi ENE 9.2 mph - N/A   Partly Cloudy
6:20 PM 51.8 °F - 42.8 °F 71% 30.18 in 6.2 mi East 9.2 mph - N/A   Partly Cloudy
6:50 PM 50.0 °F - 44.6 °F 82% 30.15 in - East 8.1 mph - N/A   Clear
7:20 PM 48.2 °F - 42.8 °F 82% 30.18 in - ENE 4.6 mph - N/A   Clear
7:50 PM 48.2 °F - 42.8 °F 82% 30.15 in - ENE 5.8 mph - N/A   Clear
8:20 PM 46.4 °F 45.2 °F 42.8 °F 87% 30.18 in - East 3.5 mph - N/A   Clear
8:50 PM 44.6 °F 43.1 °F 41.0 °F 87% 30.18 in - ENE 3.5 mph - N/A   Clear
9:20 PM 42.8 °F 41.1 °F 41.0 °F 93% 30.18 in - East 3.5 mph - N/A   Clear
9:50 PM 44.6 °F 43.1 °F 41.0 °F 87% 30.18 in - East 3.5 mph - N/A   Clear
10:20 PM 42.8 °F 41.1 °F 41.0 °F 93% 30.18 in - East 3.5 mph - N/A   Clear
10:50 PM 44.6 °F 41.4 °F 42.8 °F 93% 30.18 in - East 5.8 mph - N/A   Clear
11:20 PM 46.4 °F 43.5 °F 42.8 °F 87% 30.18 in - East 5.8 mph - N/A   Clear
11:50 PM 44.6 °F 41.4 °F 41.0 °F 87% 30.18 in - East 5.8 mph - N/A   Clear